Time,TemperatureF,DewpointF,PressureIn,WindDirection,WindDirectionDegrees,WindSpeedMPH,WindSpeedGustMPH,Humidity,HourlyPrecipIn,Conditions,Clouds,dailyrainin,SoftwareType,DateUTC
2013-01-17 00:02:00,34.0,30.0,30.08,WSW,244,4.0,-999.0,84,-99.99,,,-99.99,,2013-01-17 06:02:00,
2013-01-17 00:12:00,34.0,30.0,30.08,WSW,244,4.0,-999.0,84,-99.99,,,-99.99,,2013-01-17 06:12:00,
2013-01-17 00:22:00,34.0,30.0,30.10,West,267,5.0,-999.0,84,-99.99,,,-99.99,,2013-01-17 06:22:00,
2013-01-17 00:32:00,34.0,30.0,30.11,West,259,4.0,-999.0,85,-99.99,,,-99.99,,2013-01-17 06:32:00,
2013-01-17 00:42:00,34.0,30.0,30.11,West,259,4.0,-999.0,85,-99.99,,,-99.99,,2013-01-17 06:42:00,
2013-01-17 00:52:00,34.0,30.0,30.12,WNW,284,3.0,-999.0,86,-99.99,,,-99.99,,2013-01-17 06:52:00,
2013-01-17 01:02:00,34.0,30.0,30.13,WNW,300,5.0,-999.0,86,-99.99,,,-99.99,,2013-01-17 07:02:00,
2013-01-17 01:12:00,34.0,30.0,30.13,WNW,300,5.0,-999.0,86,-99.99,,,-99.99,,2013-01-17 07:12:00,
2013-01-17 01:22:00,35.0,31.0,30.13,NW,317,4.0,-999.0,86,-99.99,,,-99.99,,2013-01-17 07:22:00,
2013-01-17 01:32:00,35.0,31.0,30.14,NW,310,4.0,-999.0,86,-99.99,,,-99.99,,2013-01-17 07:32:00,
2013-01-17 01:42:00,35.0,31.0,30.14,NW,310,4.0,-999.0,86,-99.99,,,-99.99,,2013-01-17 07:42:00,
2013-01-17 01:52:00,35.0,32.0,30.15,NW,309,4.0,-999.0,87,-99.99,,,-99.99,,2013-01-17 07:52:00,
2013-01-17 02:02:00,34.0,31.0,30.16,NW,309,5.0,-999.0,87,-99.99,,,-99.99,,2013-01-17 08:02:00,
2013-01-17 02:12:00,34.0,31.0,30.16,NW,309,5.0,-999.0,87,-99.99,,,-99.99,,2013-01-17 08:12:00,
2013-01-17 02:22:00,34.0,31.0,30.16,NW,311,6.0,-999.0,87,-99.99,,,-99.99,,2013-01-17 08:22:00,
2013-01-17 02:32:00,34.0,30.0,30.16,NW,320,6.0,-999.0,86,-99.99,,,-99.99,,2013-01-17 08:32:00,
2013-01-17 02:43:00,34.0,30.0,30.16,NW,320,6.0,-999.0,86,-99.99,,,-99.99,,2013-01-17 08:43:00,
2013-01-17 02:52:00,34.0,30.0,30.17,NW,305,6.0,-999.0,86,-99.99,,,-99.99,,2013-01-17 08:52:00,
2013-01-17 03:02:00,34.0,30.0,30.17,NW,321,6.0,-999.0,85,-99.99,,,-99.99,,2013-01-17 09:02:00,
2013-01-17 03:12:00,34.0,30.0,30.17,NW,321,6.0,-999.0,85,-99.99,,,-99.99,,2013-01-17 09:12:00,
2013-01-17 03:22:00,33.0,29.0,30.18,NW,316,5.0,-999.0,84,-99.99,,,-99.99,,2013-01-17 09:22:00,
2013-01-17 03:32:00,33.0,29.0,30.19,WNW,297,6.0,-999.0,84,-99.99,,,-99.99,,2013-01-17 09:32:00,
2013-01-17 03:42:00,33.0,29.0,30.19,WNW,297,6.0,-999.0,84,-99.99,,,-99.99,,2013-01-17 09:42:00,
2013-01-17 03:52:00,32.0,28.0,30.20,NNW,332,5.0,-999.0,84,-99.99,,,-99.99,,2013-01-17 09:52:00,
2013-01-17 04:02:00,32.0,28.0,30.21,NW,318,6.0,-999.0,84,-99.99,,,-99.99,,2013-01-17 10:02:00,
2013-01-17 04:12:00,32.0,28.0,30.21,NW,318,6.0,-999.0,84,-99.99,,,-99.99,,2013-01-17 10:12:00,
2013-01-17 04:22:00,30.0,25.0,30.21,NNW,329,7.0,-999.0,82,-99.99,,,-99.99,,2013-01-17 10:22:00,
2013-01-17 04:32:00,30.0,25.0,30.22,NNW,334,5.0,-999.0,80,-99.99,,,-99.99,,2013-01-17 10:32:00,
2013-01-17 04:42:00,30.0,25.0,30.22,NNW,334,5.0,-999.0,80,-99.99,,,-99.99,,2013-01-17 10:42:00,
2013-01-17 04:52:00,29.0,23.0,30.23,NNW,348,6.0,-999.0,77,-99.99,,,-99.99,,2013-01-17 10:52:00,
2013-01-17 05:02:00,29.0,23.0,30.23,NNW,331,5.0,-999.0,77,-99.99,,,-99.99,,2013-01-17 11:02:00,
2013-01-17 05:12:00,29.0,23.0,30.23,NNW,331,5.0,-999.0,77,-99.99,,,-99.99,,2013-01-17 11:12:00,
2013-01-17 05:22:00,28.0,22.0,30.24,NNW,336,5.0,-999.0,78,-99.99,,,-99.99,,2013-01-17 11:22:00,
2013-01-17 05:33:00,28.0,22.0,30.25,NNW,340,5.0,-999.0,79,-99.99,,,-99.99,,2013-01-17 11:33:00,
2013-01-17 05:42:00,28.0,22.0,30.25,NNW,340,5.0,-999.0,79,-99.99,,,-99.99,,2013-01-17 11:42:00,
2013-01-17 05:52:00,27.0,21.0,30.26,NW,317,5.0,-999.0,79,-99.99,,,-99.99,,2013-01-17 11:52:00,
2013-01-17 06:02:00,27.0,22.0,30.27,NNW,333,5.0,-999.0,80,-99.99,,,-99.99,,2013-01-17 12:02:00,
2013-01-17 06:12:00,27.0,22.0,30.27,NNW,333,5.0,-999.0,80,-99.99,,,-99.99,,2013-01-17 12:12:00,
2013-01-17 06:22:00,26.0,21.0,30.28,NW,326,5.0,-999.0,81,-99.99,,,-99.99,,2013-01-17 12:22:00,
2013-01-17 06:33:00,26.0,21.0,30.28,NW,326,5.0,-999.0,81,-99.99,,,-99.99,,2013-01-17 12:33:00,
2013-01-17 06:42:00,26.0,21.0,30.28,NW,326,5.0,-999.0,81,-99.99,,,-99.99,,2013-01-17 12:42:00,
2013-01-17 06:52:00,25.0,21.0,30.29,NW,312,4.0,-999.0,83,-99.99,,,-99.99,,2013-01-17 12:52:00,
2013-01-17 07:03:00,25.0,21.0,30.30,NW,316,4.0,-999.0,83,-99.99,,,-99.99,,2013-01-17 13:03:00,
2013-01-17 07:12:00,25.0,21.0,30.30,NW,316,4.0,-999.0,83,-99.99,,,-99.99,,2013-01-17 13:12:00,
2013-01-17 07:22:00,24.0,19.0,30.31,NW,311,4.0,-999.0,81,-99.99,,,-99.99,,2013-01-17 13:22:00,
2013-01-17 07:33:00,24.0,19.0,30.31,NW,315,4.0,-999.0,81,-99.99,,,-99.99,,2013-01-17 13:33:00,
2013-01-17 07:43:00,24.0,19.0,30.31,NW,315,4.0,-999.0,81,-99.99,,,-99.99,,2013-01-17 13:43:00,
2013-01-17 07:52:00,23.0,18.0,30.32,NW,314,5.0,-999.0,81,-99.99,,,-99.99,,2013-01-17 13:52:00,
2013-01-17 08:03:00,23.0,18.0,30.32,NW,304,4.0,-999.0,80,-99.99,,,-99.99,,2013-01-17 14:03:00,
2013-01-17 08:12:00,23.0,18.0,30.32,NW,304,4.0,-999.0,80,-99.99,,,-99.99,,2013-01-17 14:12:00,
2013-01-17 08:23:00,23.0,18.0,30.33,NW,315,4.0,-999.0,80,-99.99,,,-99.99,,2013-01-17 14:23:00,
2013-01-17 08:33:00,23.0,17.0,30.34,NW,312,6.0,-999.0,79,-99.99,,,-99.99,,2013-01-17 14:33:00,
2013-01-17 08:43:00,23.0,17.0,30.34,NW,312,6.0,-999.0,79,-99.99,,,-99.99,,2013-01-17 14:43:00,
2013-01-17 08:53:00,23.0,17.0,30.34,WNW,300,5.0,-999.0,77,-99.99,,,-99.99,,2013-01-17 14:53:00,
2013-01-17 09:03:00,23.0,16.0,30.35,NW,321,7.0,-999.0,73,-99.99,,,-99.99,,2013-01-17 15:03:00,
2013-01-17 09:12:00,23.0,16.0,30.35,NW,321,7.0,-999.0,73,-99.99,,,-99.99,,2013-01-17 15:12:00,
2013-01-17 09:22:00,24.0,16.0,30.35,NNW,338,6.0,-999.0,71,-99.99,,,-99.99,,2013-01-17 15:22:00,
2013-01-17 09:33:00,24.0,16.0,30.36,NNW,333,5.0,-999.0,70,-99.99,,,-99.99,,2013-01-17 15:33:00,
2013-01-17 09:43:00,24.0,16.0,30.36,NNW,333,5.0,-999.0,70,-99.99,,,-99.99,,2013-01-17 15:43:00,
2013-01-17 09:53:00,25.0,16.0,30.36,NNW,327,5.0,-999.0,69,-99.99,,,-99.99,,2013-01-17 15:53:00,
2013-01-17 10:02:00,25.0,16.0,30.36,WNW,296,6.0,-999.0,69,-99.99,,,-99.99,,2013-01-17 16:02:00,
2013-01-17 10:12:00,25.0,16.0,30.36,WNW,296,6.0,-999.0,69,-99.99,,,-99.99,,2013-01-17 16:12:00,
2013-01-17 10:22:00,25.0,15.0,30.37,WNW,302,8.0,-999.0,65,-99.99,,,-99.99,,2013-01-17 16:22:00,
2013-01-17 10:33:00,25.0,15.0,30.39,NW,320,9.0,-999.0,65,-99.99,,,-99.99,,2013-01-17 16:33:00,
2013-01-17 10:43:00,25.0,15.0,30.39,NW,320,9.0,-999.0,65,-99.99,,,-99.99,,2013-01-17 16:43:00,
2013-01-17 10:53:00,25.0,15.0,30.39,NW,315,8.0,-999.0,65,-99.99,,,-99.99,,2013-01-17 16:53:00,
2013-01-17 11:03:00,26.0,16.0,30.39,WNW,284,9.0,-999.0,65,-99.99,,,-99.99,,2013-01-17 17:03:00,
2013-01-17 11:12:00,26.0,16.0,30.39,WNW,284,9.0,-999.0,65,-99.99,,,-99.99,,2013-01-17 17:12:00,
2013-01-17 11:22:00,26.0,17.0,30.39,WNW,292,8.0,-999.0,69,-99.99,,,-99.99,,2013-01-17 17:22:00,
2013-01-17 11:33:00,27.0,18.0,30.39,NNW,331,9.0,-999.0,68,-99.99,,,-99.99,,2013-01-17 17:33:00,
2013-01-17 11:43:00,27.0,18.0,30.39,NNW,331,9.0,-999.0,68,-99.99,,,-99.99,,2013-01-17 17:43:00,
2013-01-17 11:53:00,27.0,17.0,30.38,WNW,302,10.0,-999.0,65,-99.99,,,-99.99,,2013-01-17 17:53:00,
2013-01-17 12:03:00,27.0,16.0,30.38,NW,306,10.0,-999.0,63,-99.99,,,-99.99,,2013-01-17 18:03:00,
2013-01-17 12:12:00,27.0,16.0,30.38,NW,306,10.0,-999.0,63,-99.99,,,-99.99,,2013-01-17 18:12:00,
2013-01-17 12:22:00,27.0,17.0,30.38,NW,309,8.0,-999.0,65,-99.99,,,-99.99,,2013-01-17 18:22:00,
2013-01-17 12:33:00,28.0,18.0,30.38,WNW,300,8.0,-999.0,66,-99.99,,,-99.99,,2013-01-17 18:33:00,
2013-01-17 12:43:00,28.0,18.0,30.38,WNW,300,8.0,-999.0,66,-99.99,,,-99.99,,2013-01-17 18:43:00,
2013-01-17 12:53:00,28.0,18.0,30.37,NNW,338,9.0,-999.0,65,-99.99,,,-99.99,,2013-01-17 18:53:00,
2013-01-17 13:03:00,28.0,18.0,30.37,NNW,338,9.0,-999.0,65,-99.99,,,-99.99,,2013-01-17 19:03:00,
2013-01-17 13:12:00,28.0,18.0,30.37,NNW,338,9.0,-999.0,65,-99.99,,,-99.99,,2013-01-17 19:12:00,
2013-01-17 13:23:00,28.0,18.0,30.37,NNW,338,9.0,-999.0,65,-99.99,,,-99.99,,2013-01-17 19:23:00,